Weather History for Zanesville, OH

Change the Weather History Date:

Wednesday, May 1, 2013

  Actual Average Record
Temperature  
Mean Temperature 66 °F 56 °F  
Max Temperature 79 °F 68 °F 88 °F (1951)
Min Temperature 52 °F 45 °F 28 °F (1978)
Degree Days  
Heating Degree Days 0 9  
Month to date heating degree days 0 9  
Since 1 July heating degree days 5408 5366  
Cooling Degree Days 1 0  
Month to date cooling degree days 1 0  
Year to date cooling degree days 18 9  
Growing Degree Days 16 (Base 50)    
Moisture  
Dew Point 51 °F    
Average Humidity 61    
Maximum Humidity 83    
Minimum Humidity 39    
Precipitation  
Precipitation 0.00 in 0.12 in 1.40 in (1998)
Month to date precipitation 0.00 0.12  
Year to date precipitation 9.18 11.39  
Sea Level Pressure  
Sea Level Pressure 30.20 in    
Wind  
Wind Speed 5 mph (East)    
Max Wind Speed 13 mph    
Max Gust Speed 17 mph    
Visibility 10 miles    
Events      
T = Trace of Precipitation, MM = Missing Value Source: NWS Daily Summary

Daily Weather History Graph

Daily Weather History Graph

Search for Another Location

Airport:

Trip Planner

Search our weather history database for the weather conditions in past years. The results will help you decide how hot, cold, wet, or windy it might be!

Date:

Astronomy

May. 01, 2013 Rise Set
Actual Time 6:27 AM EDT 8:22 PM EDT
Civil Twilight 5:58 AM EDT 8:51 PM EDT
Nautical Twilight 5:22 AM EDT 9:27 PM EDT
Astronomical Twilight 4:44 AM EDT 10:06 PM EDT
Moon 1:31 AM EDT (5/1) 12:04 PM EDT (5/1)
Length of Visible Light 14h 53m
Length of Day
13h 55m
Waning Gibbous, 59% of the Moon is Illuminated
May 1
Waning Gibbous
May 2
Last Quarter
May 9
New
May 18
First Quarter
May 25
Full

Hourly Weather History & Observations

Time (EDT) Temp. Dew Point Humidity Pressure Visibility Wind Dir Wind Speed Gust Speed Precip Events Conditions
12:53 AM 60.1 °F 51.1 °F 72% 30.12 in 10.0 mi ESE 6.9 mph - N/A   Clear
1:53 AM 59.0 °F 50.0 °F 72% 30.12 in 10.0 mi ESE 6.9 mph - N/A   Clear
3:53 AM 57.0 °F 48.9 °F 74% 30.12 in 10.0 mi Calm Calm - N/A   Clear
4:53 AM 55.0 °F 48.9 °F 80% 30.14 in 10.0 mi Calm Calm - N/A   Clear
5:53 AM 53.1 °F 48.0 °F 83% 30.17 in 10.0 mi East 3.5 mph - N/A   Clear
6:53 AM 53.1 °F 48.0 °F 83% 30.20 in 10.0 mi ESE 4.6 mph - N/A   Clear
8:53 AM 62.1 °F 51.1 °F 67% 30.25 in 10.0 mi SE 6.9 mph - N/A   Clear
9:53 AM 66.0 °F 52.0 °F 60% 30.25 in 10.0 mi SE 10.4 mph - N/A   Clear
10:53 AM 68.0 °F 52.0 °F 56% 30.25 in 10.0 mi ESE 5.8 mph - N/A   Clear
11:53 AM 71.1 °F 54.0 °F 55% 30.25 in 10.0 mi Calm Calm - N/A   Clear
12:53 PM 73.0 °F 54.0 °F 51% 30.23 in 10.0 mi Calm Calm - N/A   Clear
1:53 PM 75.9 °F 55.9 °F 50% 30.21 in 10.0 mi ESE 8.1 mph - N/A   Clear
2:53 PM 77.0 °F 55.0 °F 47% 30.20 in 10.0 mi Variable 5.8 mph - N/A   Clear
3:53 PM 78.1 °F 55.0 °F 45% 30.19 in 10.0 mi Calm Calm - N/A   Clear
5:53 PM 79.0 °F 53.1 °F 40% 30.20 in 10.0 mi East 5.8 mph - N/A   Clear
6:53 PM 78.1 °F 52.0 °F 40% 30.19 in 10.0 mi ENE 5.8 mph - N/A   Clear
7:53 PM 75.0 °F 51.1 °F 43% 30.19 in 10.0 mi East 5.8 mph - N/A   Clear
8:53 PM 72.0 °F 51.1 °F 48% 30.20 in 10.0 mi NE 4.6 mph - N/A   Clear
9:53 PM 70.0 °F 50.0 °F 49% 30.22 in 10.0 mi ENE 6.9 mph - N/A   Clear
10:53 PM 69.1 °F 48.9 °F 49% 30.22 in 10.0 mi East 8.1 mph - N/A   Clear
11:53 PM 66.0 °F 46.9 °F 50% 30.22 in 10.0 mi ESE 5.8 mph - N/A   Clear